TimeMDT,TemperatureF,Dew PointF,Humidity,Sea Level PressureIn,VisibilityMPH,Wind Direction,Wind SpeedMPH,Gust SpeedMPH,PrecipitationIn,Events,Conditions,WindDirDegrees,DateUTC
12:10 AM,41.0,35.6,81,30.00,10.0,SW,9.2,20.7,N/A,,Mostly Cloudy,230,2013-06-20 06:10:00
12:30 AM,39.2,35.6,87,30.01,10.0,SW,13.8,24.2,N/A,,Mostly Cloudy,230,2013-06-20 06:30:00
12:50 AM,39.2,35.6,87,30.01,10.0,SSW,13.8,19.6,N/A,,Mostly Cloudy,200,2013-06-20 06:50:00
1:10 AM,39.2,35.6,87,30.02,10.0,SW,13.8,21.9,N/A,,Overcast,220,2013-06-20 07:10:00
1:30 AM,39.2,35.6,87,30.02,10.0,SW,9.2,20.7,N/A,,Mostly Cloudy,230,2013-06-20 07:30:00
1:50 AM,39.2,35.6,87,30.02,10.0,SW,9.2,17.3,N/A,,Overcast,230,2013-06-20 07:50:00
2:10 AM,39.2,35.6,87,30.02,10.0,SW,10.4,16.1,N/A,,Overcast,230,2013-06-20 08:10:00
2:30 AM,39.2,35.6,87,30.02,10.0,SSW,12.7,21.9,N/A,,Overcast,210,2013-06-20 08:30:00
2:50 AM,39.2,33.8,81,30.02,10.0,SSW,13.8,19.6,N/A,,Overcast,200,2013-06-20 08:50:00
3:10 AM,37.4,33.8,87,30.02,10.0,SW,17.3,23.0,N/A,,Overcast,220,2013-06-20 09:10:00
3:30 AM,37.4,33.8,87,30.02,10.0,South,5.8,18.4,N/A,,Overcast,190,2013-06-20 09:30:00
3:50 AM,37.4,33.8,87,30.01,10.0,SSW,10.4,16.1,N/A,,Overcast,200,2013-06-20 09:50:00
4:10 AM,37.4,32.0,81,30.00,10.0,SSW,8.1,-,N/A,,Overcast,210,2013-06-20 10:10:00
4:30 AM,37.4,32.0,81,30.00,10.0,SW,4.6,17.3,N/A,,Overcast,220,2013-06-20 10:30:00
4:50 AM,37.4,32.0,81,30.00,10.0,WSW,4.6,18.4,N/A,,Overcast,250,2013-06-20 10:50:00
5:10 AM,37.4,32.0,81,30.00,10.0,SSW,11.5,-,N/A,,Overcast,210,2013-06-20 11:10:00
5:30 AM,37.4,32.0,81,30.00,10.0,SSW,8.1,20.7,N/A,,Overcast,200,2013-06-20 11:30:00
5:50 AM,37.4,32.0,81,30.01,10.0,WNW,3.5,-,N/A,,Overcast,300,2013-06-20 11:50:00
6:10 AM,37.4,32.0,81,30.02,10.0,ESE,5.8,-,N/A,,Overcast,120,2013-06-20 12:10:00
6:30 AM,37.4,32.0,81,30.03,10.0,SSW,5.8,-,N/A,,Overcast,200,2013-06-20 12:30:00
6:50 AM,37.4,32.0,81,30.04,10.0,SSW,11.5,16.1,N/A,,Overcast,210,2013-06-20 12:50:00
7:10 AM,35.6,32.0,87,30.05,10.0,Calm,Calm,-,N/A,,Overcast,0,2013-06-20 13:10:00
7:30 AM,35.6,32.0,87,30.06,10.0,Calm,Calm,-,N/A,,Overcast,0,2013-06-20 13:30:00
7:50 AM,35.6,32.0,87,30.07,10.0,SW,4.6,17.3,N/A,,Overcast,220,2013-06-20 13:50:00
8:10 AM,35.6,32.0,87,30.07,10.0,SW,6.9,-,N/A,,Overcast,230,2013-06-20 14:10:00
8:30 AM,35.6,32.0,87,30.08,10.0,WSW,6.9,-,N/A,,Overcast,250,2013-06-20 14:30:00
8:50 AM,35.6,32.0,87,30.08,10.0,SSE,4.6,-,N/A,,Overcast,160,2013-06-20 14:50:00
9:10 AM,37.4,32.0,81,30.09,10.0,SW,8.1,-,N/A,,Overcast,220,2013-06-20 15:10:00
9:30 AM,37.4,32.0,81,30.10,10.0,WSW,5.8,-,N/A,,Overcast,250,2013-06-20 15:30:00
9:50 AM,37.4,32.0,81,30.11,10.0,WSW,6.9,-,N/A,,Overcast,240,2013-06-20 15:50:00
10:10 AM,37.4,32.0,81,30.10,10.0,SW,9.2,-,N/A,,Overcast,220,2013-06-20 16:10:00
10:30 AM,39.2,33.8,81,30.10,10.0,SW,18.4,21.9,N/A,,Overcast,220,2013-06-20 16:30:00
10:50 AM,39.2,35.6,87,30.11,10.0,SSW,13.8,23.0,N/A,,Overcast,210,2013-06-20 16:50:00
11:10 AM,44.6,39.2,81,30.11,10.0,SSW,13.8,21.9,N/A,,Mostly Cloudy,210,2013-06-20 17:10:00
11:30 AM,44.6,39.2,81,30.11,10.0,SW,16.1,21.9,N/A,,Mostly Cloudy,230,2013-06-20 17:30:00
11:50 AM,44.6,39.2,81,30.11,10.0,SW,9.2,-,N/A,,Mostly Cloudy,220,2013-06-20 17:50:00
12:10 PM,46.4,41.0,81,30.11,10.0,SW,10.4,24.2,N/A,,Mostly Cloudy,220,2013-06-20 18:10:00
12:30 PM,46.4,42.8,87,30.10,10.0,SW,16.1,24.2,N/A,,Mostly Cloudy,230,2013-06-20 18:30:00
12:50 PM,46.4,41.0,81,30.10,10.0,West,12.7,20.7,N/A,,Mostly Cloudy,260,2013-06-20 18:50:00
1:10 PM,48.2,44.6,87,30.09,10.0,SW,11.5,26.5,N/A,,Mostly Cloudy,230,2013-06-20 19:10:00
1:30 PM,50.0,44.6,82,30.09,10.0,SW,16.1,25.3,N/A,,Mostly Cloudy,220,2013-06-20 19:30:00
1:50 PM,50.0,46.4,87,30.09,10.0,WSW,17.3,32.2,N/A,,Scattered Clouds,240,2013-06-20 19:50:00
2:10 PM,51.8,46.4,82,30.09,10.0,SW,15.0,27.6,N/A,,Scattered Clouds,220,2013-06-20 20:10:00
2:30 PM,53.6,48.2,82,30.09,10.0,South,13.8,29.9,N/A,,Partly Cloudy,180,2013-06-20 20:30:00
2:50 PM,53.6,48.2,82,30.09,10.0,SSW,17.3,24.2,N/A,,Partly Cloudy,210,2013-06-20 20:50:00
3:10 PM,53.6,50.0,88,30.08,10.0,SSW,17.3,25.3,N/A,,Clear,210,2013-06-20 21:10:00
3:30 PM,53.6,50.0,88,30.09,10.0,SW,9.2,29.9,N/A,,Scattered Clouds,220,2013-06-20 21:30:00
3:50 PM,53.6,48.2,82,30.08,10.0,SSW,13.8,20.7,N/A,,Mostly Cloudy,210,2013-06-20 21:50:00
4:10 PM,53.6,48.2,82,30.08,10.0,SSW,16.1,27.6,N/A,,Scattered Clouds,210,2013-06-20 22:10:00
4:30 PM,55.4,50.0,82,30.08,10.0,SW,17.3,24.2,N/A,,Partly Cloudy,220,2013-06-20 22:30:00
4:50 PM,55.4,50.0,82,30.08,10.0,SW,15.0,23.0,N/A,,Clear,220,2013-06-20 22:50:00
5:10 PM,55.4,50.0,82,30.07,10.0,SSW,10.4,20.7,N/A,,Clear,210,2013-06-20 23:10:00
5:30 PM,55.4,50.0,82,30.07,10.0,SW,15.0,23.0,N/A,,Clear,230,2013-06-20 23:30:00
5:50 PM,55.4,50.0,82,30.07,10.0,SSW,15.0,21.9,N/A,,Clear,200,2013-06-20 23:50:00
6:10 PM,55.4,50.0,82,30.07,10.0,WSW,11.5,-,N/A,,Clear,240,2013-06-21 00:10:00
6:30 PM,55.4,50.0,82,30.07,10.0,SW,15.0,27.6,N/A,,Clear,220,2013-06-21 00:30:00
6:50 PM,55.4,50.0,82,30.08,10.0,SSW,10.4,17.3,N/A,,Clear,210,2013-06-21 00:50:00
7:10 PM,55.4,50.0,82,30.08,10.0,SSW,12.7,21.9,N/A,,Clear,200,2013-06-21 01:10:00
7:30 PM,53.6,50.0,88,30.08,10.0,SW,9.2,18.4,N/A,,Clear,220,2013-06-21 01:30:00
7:50 PM,53.6,48.2,82,30.09,10.0,SW,10.4,-,N/A,,Clear,230,2013-06-21 01:50:00
8:10 PM,53.6,48.2,82,30.09,10.0,SSW,11.5,-,N/A,,Clear,200,2013-06-21 02:10:00
8:30 PM,51.8,46.4,82,30.09,10.0,SW,4.6,-,N/A,,Clear,220,2013-06-21 02:30:00
8:50 PM,50.0,44.6,82,30.10,10.0,Calm,Calm,-,N/A,,Clear,0,2013-06-21 02:50:00
9:10 PM,46.4,42.8,87,30.10,10.0,SSE,3.5,-,N/A,,Clear,150,2013-06-21 03:10:00
9:30 PM,41.0,37.4,87,30.11,10.0,Calm,Calm,-,N/A,,Clear,0,2013-06-21 03:30:00
9:50 PM,39.2,33.8,81,30.11,10.0,Calm,Calm,-,N/A,,Clear,0,2013-06-21 03:50:00
10:10 PM,35.6,32.0,87,30.11,10.0,South,5.8,-,N/A,,Clear,170,2013-06-21 04:10:00
10:30 PM,41.0,37.4,87,30.11,10.0,SE,6.9,-,N/A,,Clear,140,2013-06-21 04:30:00
10:50 PM,37.4,32.0,81,30.11,10.0,South,3.5,-,N/A,,Clear,190,2013-06-21 04:50:00
11:10 PM,33.8,30.2,87,30.11,10.0,Calm,Calm,-,N/A,,Clear,0,2013-06-21 05:10:00
11:30 PM,32.0,28.4,87,30.10,10.0,Calm,Calm,-,N/A,,Clear,0,2013-06-21 05:30:00
11:50 PM,32.0,26.6,80,30.11,10.0,NNW,5.8,-,N/A,,Clear,340,2013-06-21 05:50:00